Location: Aciu?a
(46.2833°N, 22.4500°E)
Time: 05:43:12
(UTC+00:00)

USA 229 - Pass Details

Date: 25 October 2021
Orbit: 946 x 1266 km, 63.4° (Epoch: 25 November)

Event Time Altitude Azimuth Distance (km) Brightness Sun altitude
Rises 16:41:13 0° 204° (SSW) 3,622 6.9 -13.5°
Reaches altitude 10° 16:43:44 10° 201° (SSW) 2,700 6.1 -14.0°
Maximum altitude 16:49:56 63° 122° (ESE) 1,118 3.6 -15.0°
Enters shadow 16:56:30 11° 44° (NE) 2,855 5.5 -16.2°
